Clintonville, WI

11:13 AM CDT on May 22, 2018 (GMT -0500)
Clintonville Municipal

Weather History for KCLI - March, 2013

Change the Weather History Date:

Saturday, March 9, 2013

  Actual Average Record
Temperature  
Mean Temperature 29 °F -  
Max Temperature 37 °F 39 °F 65 °F (1987)
Min Temperature 21 °F 16 °F -5 °F (1963)
Degree Days  
Heating Degree Days 36    
Moisture  
Dew Point 29 °F    
Average Humidity 92    
Maximum Humidity 100    
Minimum Humidity 80    
Precipitation  
Precipitation 0.21 in - - ()
Sea Level Pressure  
Sea Level Pressure 30.02 in    
Wind  
Wind Speed 4 mph (SE)    
Max Wind Speed 14 mph    
Max Gust Speed 17 mph    
Visibility 5 miles    
Events Rain , Snow    
Averages and records for this station are not official NWS values.
T = Trace of Precipitation, MM = Missing Value Source: NWS Daily Summary

Daily Weather History Graph

Daily Weather History Graph

Search for Another Location

Airport or City:

Astronomy

Mar. 09, 2013 Rise Set
Actual Time 6:17 AM CST 5:53 PM CST
Civil Twilight 5:48 AM CST 6:22 PM CST
Nautical Twilight 5:14 AM CST 6:56 PM CST
Astronomical Twilight 4:40 AM CST 7:30 PM CST
Moon 4:45 AM CST (3/9) 3:52 PM CST (3/9)
Length of Visible Light 12h 34m
Length of Day
11h 35m
Waning Crescent, 5% of the Moon is Illuminated
Mar 9
Waning Crescent
Mar 11
New
Mar 19
First Quarter
Mar 27
Full
Apr 2
Last Quarter

Hourly Weather History & Observations

Time (CST) Temp. Windchill Dew Point Humidity Pressure Visibility Wind Dir Wind Speed Gust Speed Precip Events Conditions
12:15 AM 26.6 °F - 26.6 °F 100% 30.26 in 4.0 mi Calm Calm - N/A   Clear
12:35 AM 24.8 °F - 23.0 °F 93% 30.25 in 4.0 mi Calm Calm - N/A   Clear
12:55 AM 24.8 °F - 23.0 °F 93% 30.25 in 3.0 mi Calm Calm - N/A   Clear
1:15 AM 24.8 °F - 24.8 °F 100% 30.24 in 3.0 mi Calm Calm - N/A   Clear
1:35 AM 23.0 °F - 21.2 °F 93% 30.24 in 1.8 mi Calm Calm - N/A   Mist
1:55 AM 23.0 °F - 23.0 °F 100% 30.23 in 2.5 mi Calm Calm - N/A   Clear
2:15 AM 24.8 °F - 24.8 °F 100% 30.22 in 2.5 mi Calm Calm - N/A   Clear
2:35 AM 23.0 °F - 23.0 °F 100% 30.21 in 3.0 mi Calm Calm - N/A   Clear
2:55 AM 21.2 °F 16.4 °F 21.2 °F 100% 30.20 in 2.5 mi East 3.5 mph - N/A   Clear
3:15 AM 23.0 °F - 23.0 °F 100% 30.19 in 4.0 mi Calm Calm - N/A   Clear
3:35 AM 24.8 °F 20.5 °F 24.8 °F 100% 30.18 in 5.0 mi ESE 3.5 mph - N/A   Clear
3:55 AM 26.6 °F - 24.8 °F 93% 30.18 in 5.0 mi Calm Calm - N/A   Clear
4:15 AM 26.6 °F - 23.0 °F 86% 30.18 in 5.0 mi Calm Calm - N/A   Clear
4:35 AM 26.6 °F - 24.8 °F 93% 30.18 in 7.0 mi Calm Calm - N/A   Clear
4:55 AM 26.6 °F - 24.8 °F 93% 30.18 in 7.0 mi Calm Calm - N/A   Clear
5:15 AM 26.6 °F - 23.0 °F 86% 30.19 in 5.0 mi Calm Calm - N/A   Clear
5:35 AM 26.6 °F - 24.8 °F 93% 30.18 in 7.0 mi Calm Calm - N/A   Clear
5:55 AM 26.6 °F - 23.0 °F 86% 30.17 in 7.0 mi Calm Calm - N/A   Mostly Cloudy
6:15 AM 28.4 °F 22.2 °F 24.8 °F 86% 30.16 in 7.0 mi East 5.8 mph - N/A   Overcast
6:35 AM 28.4 °F 24.6 °F 24.8 °F 86% 30.16 in 7.0 mi ESE 3.5 mph - N/A   Overcast
6:55 AM 28.4 °F 24.6 °F 24.8 °F 86% 30.15 in 7.0 mi ESE 3.5 mph - N/A   Overcast
7:15 AM 28.4 °F - 24.8 °F 86% 30.16 in 7.0 mi Calm Calm - N/A   Overcast
7:35 AM 30.2 °F - 26.6 °F 86% 30.15 in 7.0 mi Calm Calm - N/A   Overcast
7:55 AM 30.2 °F - 26.6 °F 86% 30.15 in 7.0 mi Calm Calm - N/A   Overcast
8:15 AM 30.2 °F 26.7 °F 26.6 °F 86% 30.14 in 7.0 mi SE 3.5 mph - N/A   Overcast
8:35 AM 32.0 °F 27.5 °F 26.6 °F 80% 30.14 in 7.0 mi SE 4.6 mph - N/A   Overcast
8:55 AM 32.0 °F 28.7 °F 26.6 °F 80% 30.13 in 10.0 mi SE 3.5 mph - N/A   Overcast
9:15 AM 33.8 °F 28.6 °F 28.4 °F 81% 30.12 in 10.0 mi SSE 5.8 mph - N/A   Overcast
9:35 AM 33.8 °F 25.8 °F 28.4 °F 81% 30.10 in 10.0 mi SSE 10.4 mph - N/A   Overcast
9:55 AM 33.8 °F 25.8 °F 28.4 °F 81% 30.08 in 5.0 mi SSE 10.4 mph - N/A Snow Light Snow
10:15 AM 33.8 °F 25.3 °F 30.2 °F 87% 30.08 in 2.0 mi SSE 11.5 mph - N/A Snow Light Snow
10:35 AM 33.8 °F 27.0 °F 32.0 °F 93% 30.06 in 2.5 mi SE 8.1 mph - N/A Snow Light Snow
10:55 AM 32.0 °F 25.6 °F 32.0 °F 100% 30.06 in 5.0 mi SSE 6.9 mph - N/A   Overcast
11:15 AM 33.8 °F 27.0 °F 32.0 °F 93% 30.05 in 5.0 mi SSE 8.1 mph - N/A   Overcast
11:35 AM 33.8 °F 24.3 °F 32.0 °F 93% 30.04 in 7.0 mi SSE 13.8 mph - N/A   Overcast
11:55 AM 35.6 °F 28.0 °F 32.0 °F 87% 30.02 in 7.0 mi SE 10.4 mph 16.1 mph N/A   Overcast
12:15 PM 35.6 °F 28.0 °F 32.0 °F 87% 30.01 in 10.0 mi SE 10.4 mph - N/A   Overcast
12:35 PM 35.6 °F 28.6 °F 32.0 °F 87% 30.01 in 10.0 mi SE 9.2 mph - N/A   Overcast
12:55 PM 35.6 °F 26.6 °F 32.0 °F 87% 29.99 in 10.0 mi SE 13.8 mph 17.3 mph N/A   Overcast
1:15 PM 35.6 °F 28.0 °F 32.0 °F 87% 29.98 in 10.0 mi SE 10.4 mph - N/A   Overcast
1:35 PM 35.6 °F 27.5 °F 32.0 °F 87% 29.97 in 10.0 mi SE 11.5 mph - N/A   Overcast
1:55 PM 35.6 °F 27.5 °F 32.0 °F 87% 29.96 in 10.0 mi SE 11.5 mph - N/A   Overcast
2:15 PM 37.4 °F 30.3 °F 32.0 °F 81% 29.94 in 10.0 mi ESE 10.4 mph - N/A   Overcast
2:35 PM 35.6 °F 28.0 °F 32.0 °F 87% 29.94 in 10.0 mi SE 10.4 mph - N/A   Overcast
2:55 PM 35.6 °F 29.2 °F 32.0 °F 87% 29.93 in 10.0 mi ESE 8.1 mph - N/A   Overcast
3:15 PM 35.6 °F 28.6 °F 32.0 °F 87% 29.91 in 10.0 mi SE 9.2 mph - N/A   Overcast
3:35 PM 35.6 °F 28.6 °F 32.0 °F 87% 29.91 in 10.0 mi SE 9.2 mph - N/A   Overcast
3:55 PM 35.6 °F 28.0 °F 32.0 °F 87% 29.90 in 7.0 mi SE 10.4 mph - N/A Rain Rain
4:15 PM 33.8 °F 27.7 °F 32.0 °F 93% 29.90 in 4.0 mi SE 6.9 mph - N/A Rain Rain
4:35 PM 33.8 °F 27.0 °F 32.0 °F 93% 29.89 in 4.0 mi SE 8.1 mph - 0.01 in Rain Light Rain
4:55 PM 33.8 °F 27.0 °F 32.0 °F 93% 29.88 in 2.5 mi SE 8.1 mph - 0.04 in Rain Rain
5:15 PM 33.8 °F 27.0 °F 32.0 °F 93% 29.87 in 2.0 mi SE 8.1 mph - 0.03 in Rain Rain
5:35 PM 33.8 °F 25.8 °F 32.0 °F 93% 29.87 in 2.5 mi SE 10.4 mph 16.1 mph 0.07 in Rain Rain
6:15 PM 33.8 °F 27.7 °F 32.0 °F 93% 29.86 in 3.0 mi SE 6.9 mph - 0.01 in Rain Rain
6:35 PM 33.8 °F 27.7 °F 32.0 °F 93% 29.86 in 4.0 mi SE 6.9 mph - 0.01 in Rain Light Rain
6:55 PM 33.8 °F 29.6 °F 32.0 °F 93% 29.86 in 4.0 mi SSE 4.6 mph - 0.01 in   Drizzle
7:15 PM 33.8 °F 29.6 °F 32.0 °F 93% 29.86 in 3.0 mi SSE 4.6 mph - N/A Rain Light Rain
7:35 PM 33.8 °F 30.8 °F 33.8 °F 100% 29.86 in 3.0 mi SSE 3.5 mph - 0.02 in Rain Light Rain
7:55 PM 33.8 °F 28.6 °F 33.8 °F 100% 29.85 in 2.5 mi SSE 5.8 mph - 0.04 in Rain Rain
8:15 PM 33.8 °F 28.6 °F 33.8 °F 100% 29.85 in 3.0 mi SSE 5.8 mph - 0.01 in Rain Light Rain
8:35 PM 33.8 °F 28.6 °F 33.8 °F 100% 29.84 in 2.5 mi SSE 5.8 mph - 0.02 in Rain Light Rain
8:55 PM 33.8 °F 27.7 °F 33.8 °F 100% 29.84 in 3.0 mi SSE 6.9 mph - 0.03 in Rain Rain
9:15 PM 33.8 °F 28.6 °F 33.8 °F 100% 29.84 in 3.0 mi SSE 5.8 mph - 0.01 in Rain Heavy Rain
9:35 PM 33.8 °F 29.6 °F 33.8 °F 100% 29.84 in 2.5 mi South 4.6 mph - 0.01 in   Heavy Drizzle
9:55 PM 33.8 °F 29.6 °F 33.8 °F 100% 29.83 in 2.0 mi South 4.6 mph - 0.02 in   Drizzle
10:15 PM 33.8 °F 28.6 °F 33.8 °F 100% 29.82 in 2.0 mi SSE 5.8 mph - N/A   Light Drizzle
10:35 PM 33.8 °F 27.7 °F 33.8 °F 100% 29.81 in 2.0 mi SSE 6.9 mph - N/A   Light Drizzle
10:55 PM 33.8 °F 28.6 °F 33.8 °F 100% 29.82 in 3.0 mi South 5.8 mph - N/A   Overcast
11:15 PM 33.8 °F 29.6 °F 33.8 °F 100% 29.82 in 3.0 mi SSE 4.6 mph - N/A   Overcast
11:35 PM 33.8 °F 30.8 °F 33.8 °F 100% 29.81 in 3.0 mi SSE 3.5 mph - N/A   Heavy Drizzle
11:55 PM 33.8 °F - 33.8 °F 100% 29.80 in 2.5 mi Calm Calm - N/A   Light Drizzle